Stations météo

Publicité
Dijon, France (7280): Température de l'air & dewpoint: 21.06.2019 12:00:00 - 27.06.2019 12:00:00 (CEST)Dijon, France (7280): Température de l'air 5cm: 21.06.2019 12:00:00 - 27.06.2019 12:00:00 (CEST)Dijon, France (7280): Température de l'air -20cm & Température de l'air -100cm: 21.06.2019 12:00:00 - 27.06.2019 12:00:00 (CEST)Dijon, France (7280): Vitesse du vent & gusts: 21.06.2019 12:00:00 - 27.06.2019 12:00:00 (CEST)Dijon, France (7280): Direction du vent: 21.06.2019 12:00:00 - 27.06.2019 12:00:00 (CEST)Dijon, France (7280): reduced air pressure: 21.06.2019 12:00:00 - 27.06.2019 12:00:00 (CEST)Dijon, France (7280): visibility: 21.06.2019 12:00:00 - 27.06.2019 12:00:00 (CEST)Dijon, France (7280): Ensoleillement: 21.06.2019 12:00:00 - 27.06.2019 12:00:00 (CEST)Dijon, France (7280): Quantités de précipitations: 21.06.2019 12:00:00 - 27.06.2019 12:00:00 (CEST)
Date & Time tt [°C] td [°C] tt 5cm [°C] tt -20cm [°C] tt -100cm [°C] ff [km/h] ff [knt] fx [km/h] fx [knt] dd ppp [hPa] vv [km] sd [min] rr [mm]
27.06.2019 12:00:00 32,7 22,2 45,7 22,4 16,6 5 3 11 6 NE 1020,4 16 60 0,0
27.06.2019 11:00:00 30,3 21,7 37,2 22,3 16,6 5 3 13 7 E 1020,8 19 60 0,0
27.06.2019 10:00:00 28,5 20,8 31,6 22,4 16,6 7 4 15 8 ENE 1021,3 19 60 0,0
27.06.2019 09:00:00 27,5 20,3 25,3 22,5 16,6 3 2 11 6 NNE 1021,3 20 60 0,0
27.06.2019 08:00:00 24,4 19,5 20,7 22,6 16,6 5 3 8 4 NNW 1021,5 20 60 0,0
27.06.2019 07:00:00 21,2 18,2 18,3 22,7 16,6 7 4 10 5 N 1021,5 20 23 0,0
27.06.2019 06:00:00 20,3 17,7 17,4 22,8 16,5 6 3 9 5 NNW 1021,4 20 0 0,0
27.06.2019 05:00:00 20,1 18,0 16,8 22,9 16,5 6 3 8 4 NNW 1021,2 20 0 0,0
27.06.2019 04:00:00 20,4 18,0 18,7 23,0 16,5 4 2 7 4 N 1020,9 20 0 0,0
27.06.2019 03:00:00 21,6 18,6 18,0 23,1 16,5 5 3 8 4 N 1020,7 20 0 0,0
27.06.2019 02:00:00 21,3 18,1 17,0 23,1 16,5 6 3 7 4 NNE 1020,7 20 0 0,0
27.06.2019 01:00:00 21,7 18,1 17,3 23,1 16,5 6 3 8 4 NW 1020,7 18 0 0,0
27.06.2019 00:00:00 23,4 18,7 18,6 23,1 16,5 4 2 10 5 NNW 1020,4 20 0 0,0
26.06.2019 23:00:00 24,4 19,0 19,3 23,1 16,5 3 2 6 4 WNW 1020,4 20 0 0,0
26.06.2019 22:00:00 27,4 20,0 20,8 23,0 16,5 0 0 3 2 N 1019,6 18 6 0,0
26.06.2019 21:00:00 32,1 19,7 27,9 22,9 16,5 3 2 8 5 S 1018,9 20 60 0,0
26.06.2019 20:00:00 34,0 19,3 35,8 22,6 16,5 7 4 14 8 S 1018,6 13 60 0,0
26.06.2019 19:00:00 35,0 18,6 42,0 22,5 16,4 11 6 24 13 SSW 1018,5 20 60 0,0
26.06.2019 18:00:00 35,5 18,6 44,0 22,3 16,4 10 6 31 17 S 1018,7 20 60 0,0
26.06.2019 17:00:00 35,7 18,8 46,5 22,1 16,4 10 5 22 12 S 1019,1 20 60 0,0
26.06.2019 16:00:00 35,4 18,1 46,3 21,8 16,4 14 8 32 18 S 1019,5 60 60 0,0
26.06.2019 15:00:00 35,1 17,8 52,5 21,7 16,4 11 6 28 15 SSE 1019,9 20 60 0,0
26.06.2019 14:00:00 34,1 18,2 51,0 21,6 16,4 16 9 31 17 S 1020,4 60 60 0,0
26.06.2019 13:00:00 33,0 18,8 49,0 21,5 16,4 14 8 25 14 S 1021,1 56 60 0,0
26.06.2019 12:00:00 32,5 18,3 42,7 21,5 16,4 11 6 24 13 S 1021,0 19 60 0,0
26.06.2019 11:00:00 30,4 17,8 35,0 21,4 16,3 14 8 25 13 SSE 1021,3 16 58 0,0
26.06.2019 10:00:00 28,7 18,5 30,0 21,5 16,4 6 3 13 7 S 1021,4 20 60 0,0
26.06.2019 09:00:00 25,5 18,7 24,1 21,6 16,4 3 2 9 5 NNE 1021,5 38 60 0,0
26.06.2019 08:00:00 22,2 18,8 19,7 21,7 16,4 6 4 10 5 N 1021,5 24 60 0,0
26.06.2019 07:00:00 19,8 17,8 16,0 21,8 16,3 5 3 7 4 N 1021,5 29 37 0,0
26.06.2019 06:00:00 18,6 16,9 16,1 21,8 16,3 3 2 8 4 N 1021,2 31 0 0,0
26.06.2019 05:00:00 19,0 17,0 16,3 21,9 16,3 5 3 8 4 N 1021,1 31 0 0,0
26.06.2019 04:00:00 19,4 17,0 16,2 22,0 16,3 4 2 6 3 N 1020,8 24 0 0,0
26.06.2019 03:00:00 20,1 17,7 17,4 22,0 16,3 4 2 7 4 NW 1020,9 33 0 0,0
26.06.2019 02:00:00 21,9 18,3 18,0 22,1 16,3 5 3 8 4 N 1020,6 18 0 0,0
26.06.2019 01:00:00 22,1 18,9 17,9 22,1 16,3 3 2 8 4 N 1020,6 38 0 0,0
26.06.2019 00:00:00 23,9 19,0 18,9 22,0 16,3 8 4 9 5 N 1020,4 41 0 0,0
25.06.2019 23:00:00 23,6 19,3 19,1 22,0 16,3 4 2 8 4 N 1020,0 46 0 0,0
25.06.2019 22:00:00 25,6 19,9 22,5 21,9 16,3 6 3 12 7 SE 1019,1 41 0 0,0
25.06.2019 21:00:00 29,2 19,8 28,3 21,8 16,3 7 4 11 6 SE 1018,2 59 44 0,0
25.06.2019 20:00:00 30,7 17,4 32,6 21,6 16,2 10 5 14 8 SW 1017,8 55 25 0,0
25.06.2019 19:00:00 31,7 16,8 36,1 21,5 16,3 11 6 21 11 SSW 1017,5 60 35 0,0
25.06.2019 18:00:00 32,6 15,1 37,8 21,3 16,2 14 8 23 13 SW 1017,4 60 39 0,0
25.06.2019 17:00:00 32,0 15,1 40,4 21,2 16,3 17 9 27 14 S 1017,6 20 58 0,0
25.06.2019 16:00:00 32,8 17,0 41,7 21,0 16,2 12 6 25 13 S 1017,3 19 57 0,0
25.06.2019 15:00:00 31,7 16,0 45,8 20,9 16,2 16 9 29 15 S 1017,5 46 60 0,0
25.06.2019 14:00:00 30,8 15,2 43,6 20,8 16,2 13 7 23 13 SSE 1017,7 47 60 0,0
25.06.2019 13:00:00 29,6 15,3 40,1 20,8 16,2 11 6 26 14 SSE 1017,9 55 60 0,0
25.06.2019 12:00:00 28,3 15,6 39,2 20,8 16,2 13 7 27 15 S 1018,2 60 60 0,0
25.06.2019 11:00:00 27,2 14,9 27,2 20,8 16,2 18 10 27 15 S 1018,2 60 39 0,0
25.06.2019 10:00:00 25,8 14,6 27,9 20,9 16,2 19 11 29 16 S 1018,2 60 58 0,0
25.06.2019 09:00:00 24,3 16,3 22,5 21,0 16,2 11 6 18 10 S 1018,1 60 60 0,0
25.06.2019 08:00:00 21,1 18,5 19,5 21,1 16,2 4 2 6 4 SE 1018,0 20 53 0,0
25.06.2019 07:00:00 18,9 17,4 14,2 21,2 16,2 0 0 3 2 N 1017,8 25 19 0,0
25.06.2019 06:00:00 16,4 15,4 13,8 21,3 16,2 0 0 6 3 N 1017,2 20 0 0,0
25.06.2019 05:00:00 16,9 16,1 13,9 21,3 16,2 4 2 5 3 N 1016,8 29 0 0,0
25.06.2019 04:00:00 17,6 16,3 14,1 21,4 16,2 4 2 5 3 NNW 1016,6 16 0 0,0
25.06.2019 03:00:00 18,2 16,5 14,8 21,5 16,1 0 0 4 2 N 1016,3 24 0 0,0
25.06.2019 02:00:00 19,5 16,7 16,1 21,5 16,2 0 0 3 1 N 1016,1 42 0 0,0
25.06.2019 01:00:00 20,6 17,2 17,5 21,5 16,1 0 0 5 3 N 1015,8 18 0 0,0
25.06.2019 00:00:00 21,4 17,4 17,9 21,5 16,1 0 0 5 3 N 1015,7 50 0 0,0
24.06.2019 23:00:00 22,6 17,7 18,5 21,5 16,1 2 1 4 2 NW 1015,5 48 0 0,0
24.06.2019 22:00:00 24,5 17,7 20,0 21,4 16,1 0 0 11 6 N 1015,4 47 0 0,0
24.06.2019 21:00:00 27,5 18,5 26,6 21,2 16,1 8 4 10 6 ESE 1014,9 57 40 0,0
24.06.2019 20:00:00 29,7 16,1 30,8 21,1 16,1 9 5 14 8 ESE 1014,5 60 33 0,0
24.06.2019 19:00:00 30,4 14,9 31,5 20,9 16,1 8 5 19 10 ESE 1014,4 57 12 0,0
24.06.2019 18:00:00 30,7 12,6 33,1 20,8 16,1 13 7 20 11 ESE 1014,5 59 10 0,0
24.06.2019 17:00:00 31,4 14,5 39,1 20,5 16,1 10 6 23 13 ESE 1014,6 1,6 60 0,0
24.06.2019 16:00:00 32,1 13,3 43,3 20,4 16,1 12 6 29 16 ESE 1014,8 20 60 0,0
24.06.2019 15:00:00 31,0 13,7 47,1 20,2 16,1 9 5 20 11 SE 1015,3 54 60 0,0
24.06.2019 14:00:00 30,6 15,5 48,1 20,0 16,1 9 5 24 13 SSE 1015,7 19 60 0,0
24.06.2019 13:00:00 30,0 17,1 47,5 19,9 16,1 10 6 26 14 S 1015,8 60 60 0,0
24.06.2019 12:00:00 28,2 16,5 42,5 19,9 16,1 10 5 19 10 S 1016,1 18 60 0,0
24.06.2019 11:00:00 27,3 16,6 32,7 19,9 16,0 4 2 12 6 S 1016,2 60 60 0,0
24.06.2019 10:00:00 25,0 18,0 27,0 19,9 16,1 0 0 6 3 N 1016,5 20 60 0,0
24.06.2019 09:00:00 21,7 17,5 21,5 20,0 16,0 2 1 8 4 NNE 1016,8 20 60 0,0
24.06.2019 08:00:00 19,7 16,7 18,0 20,1 16,0 7 4 12 6 NNE 1016,8 19 60 0,0
24.06.2019 07:00:00 17,1 15,4 14,4 20,2 16,1 5 3 7 4 NNW 1017,0 18 60 0,2
24.06.2019 06:00:00 15,7 15,2 13,5 20,3 16,0 6 3 7 4 NNW 1017,0 15 0 0,0
24.06.2019 05:00:00 16,0 15,2 12,7 20,4 16,0 5 3 9 5 NNW 1017,2 14 0 0,0
24.06.2019 04:00:00 16,4 15,3 13,6 20,4 16,0 6 4 9 5 NW 1017,0 20 0 0,0
24.06.2019 03:00:00 17,6 16,3 13,7 20,5 16,0 6 3 8 4 NNW 1017,0 30 0 0,0
24.06.2019 02:00:00 18,8 16,2 15,4 20,6 16,0 5 3 10 5 N 1016,8 32 0 0,0
24.06.2019 01:00:00 19,5 16,7 15,4 20,6 16,0 8 4 10 5 N 1016,6 26 0 0,0
24.06.2019 00:00:00 18,8 16,4 15,3 20,5 16,0 4 2 5 3 WNW 1016,6 41 0 0,0
23.06.2019 23:00:00 20,2 17,0 15,7 20,5 16,0 6 3 10 6 N 1015,9 39 0 0,0
23.06.2019 22:00:00 23,0 16,5 17,5 20,4 16,0 8 4 10 5 ENE 1015,2 57 0 0,0
23.06.2019 21:00:00 25,6 17,3 23,6 20,3 16,0 5 3 13 7 ENE 1014,6 19 29 0,0
23.06.2019 20:00:00 26,9 15,9 27,9 20,1 16,0 10 5 16 8 E 1014,1 60 10 0,0
23.06.2019 19:00:00 26,8 16,1 28,7 19,9 16,0 12 6 16 9 ENE 1013,8 60 25 0,0
23.06.2019 18:00:00 29,0 15,2 33,1 19,6 16,0 6 4 16 9 E 1013,8 60 23 0,0
23.06.2019 17:00:00 28,5 14,7 37,5 19,4 16,0 7 4 21 11 ENE 1013,8 50 52 0,0
23.06.2019 16:00:00 28,3 15,9 40,7 19,2 16,0 8 4 20 11 NE 1014,0 20 60 0,0
23.06.2019 15:00:00 27,6 15,3 48,2 19,1 16,0 10 5 25 14 ENE 1014,3 60 60 0,0
23.06.2019 14:00:00 26,9 15,3 45,3 18,9 16,0 6 4 29 16 ESE 1014,6 19 60 0,0
23.06.2019 13:00:00 25,8 15,5 42,7 18,9 16,0 15 8 24 13 NNE 1014,7 20 60 0,0
23.06.2019 12:00:00 24,5 15,4 38,2 18,8 15,9 14 7 24 13 ENE 1015,2 60 60 0,0
23.06.2019 11:00:00 23,5 15,3 30,0 18,8 15,9 14 8 22 12 NE 1015,5 27 60 0,0
23.06.2019 10:00:00 21,6 16,1 25,6 18,9 15,9 10 6 18 10 NE 1015,6 20 60 0,0
23.06.2019 09:00:00 19,4 15,9 19,9 19,0 15,9 8 4 15 8 NE 1016,0 17 60 0,0
23.06.2019 08:00:00 17,4 15,2 15,1 19,1 15,9 8 4 11 6 N 1016,5 18 60 0,0
23.06.2019 07:00:00 14,9 14,1 11,4 19,2 15,9 6 3 9 5 WNW 1016,8 19 55 0,0
23.06.2019 06:00:00 12,5 11,7 11,4 19,3 15,9 5 3 9 5 N 1016,7 14 0 0,0
23.06.2019 05:00:00 12,4 11,9 10,2 19,3 15,9 7 4 12 6 NNW 1016,8 16 0 0,0
23.06.2019 04:00:00 12,9 12,3 10,1 19,5 15,9 4 2 6 4 WNW 1017,0 10 0 0,0
23.06.2019 03:00:00 14,0 13,7 11,9 19,5 15,9 6 3 9 5 NNW 1016,6 15 0 0,0
23.06.2019 02:00:00 14,8 14,2 11,0 19,6 15,9 6 4 8 5 N 1016,8 12 0 0,0
23.06.2019 01:00:00 14,1 13,0 11,0 19,6 15,9 5 3 9 5 WNW 1017,2 24 0 0,0
23.06.2019 00:00:00 15,1 13,8 11,6 19,6 15,9 2 1 5 3 WNW 1017,4 31 0 0,0
22.06.2019 23:00:00 16,0 14,2 12,4 19,6 15,9 6 3 8 4 SW 1017,2 33 0 0,0
22.06.2019 22:00:00 17,7 14,6 13,9 19,6 15,9 0 0 6 3 N 1016,7 45 20 0,0
22.06.2019 21:00:00 20,1 14,9 19,5 19,5 15,9 5 3 14 8 SSE 1016,2 19 60 0,0
22.06.2019 20:00:00 21,9 14,3 25,7 19,3 15,8 9 5 15 8 SE 1015,6 44 60 0,0
22.06.2019 19:00:00 22,6 13,9 32,0 19,3 15,9 4 2 21 11 S 1015,4 58 60 0,0
22.06.2019 18:00:00 22,5 14,3 27,5 19,2 15,9 11 6 20 11 SSW 1015,8 59 38 0,0
22.06.2019 17:00:00 21,4 14,1 31,1 19,1 15,8 10 5 18 10 SE 1016,4 60 37 0,0
22.06.2019 16:00:00 22,5 14,3 31,2 19,0 15,8 10 5 17 9 S 1016,3 60 37 0,0
22.06.2019 15:00:00 21,0 13,9 30,3 19,0 15,9 3 2 15 8 SSE 1016,7 57 11 0,0
22.06.2019 14:00:00 19,9 13,8 25,8 19,0 15,8 3 2 11 6 N 1017,0 52 0 0,0
22.06.2019 13:00:00 18,7 13,3 26,0 19,0 15,8 6 3 13 7 WNW 1017,3 51 15 0,0
22.06.2019 12:00:00 18,4 13,0 23,8 19,1 15,8 4 2 10 6 W 1017,2 55 1 0,0
22.06.2019 11:00:00 17,0 13,1 20,6 19,1 15,8 3 2 14 7 WNW 1017,0 38 0 0,0
22.06.2019 10:00:00 16,2 12,9 17,0 19,2 15,8 9 5 19 10 N 1017,1 57 0 0,0
22.06.2019 09:00:00 15,2 12,3 16,5 19,3 15,8 8 5 27 14 N 1017,1 60 0 0,0
22.06.2019 08:00:00 15,1 12,0 16,0 19,4 15,8 14 8 29 16 N 1016,8 60 0 0,0
22.06.2019 07:00:00 15,4 11,6 15,3 19,5 15,8 17 9 32 17 N 1016,8 60 0 0,0
22.06.2019 06:00:00 15,2 11,4 15,1 19,6 15,8 18 10 31 17 N 1016,3 60 0 0,0
22.06.2019 05:00:00 14,8 11,4 14,9 19,6 15,8 19 10 34 18 N 1016,8 60 0 0,0
22.06.2019 04:00:00 14,8 11,2 15,0 19,7 15,8 20 11 34 19 N 1017,1 60 0 0,0
22.06.2019 03:00:00 16,0 10,1 16,2 19,8 15,7 22 12 37 20 N 1017,3 60 0 0,0
22.06.2019 02:00:00 17,1 10,0 17,0 19,8 15,7 22 12 35 19 N 1017,6 60 0 0,0
22.06.2019 01:00:00 17,7 10,1 17,5 19,9 15,7 21 12 37 20 N 1017,8 60 0 0,0
22.06.2019 00:00:00 18,3 10,6 17,9 19,8 15,7 20 11 30 16 N 1017,8 60 0 0,0
21.06.2019 23:00:00 19,4 10,9 18,2 19,9 15,7 21 12 32 17 N 1017,5 60 0 0,0
21.06.2019 22:00:00 20,5 11,4 19,7 19,8 15,7 16 9 23 12 N 1017,1 60 0 0,0
21.06.2019 21:00:00 21,5 11,8 20,9 19,8 15,7 13 7 22 12 N 1016,7 60 0 0,0
21.06.2019 20:00:00 22,5 11,2 22,9 19,7 15,7 16 9 28 15 NNE 1016,3 60 0 0,0
21.06.2019 19:00:00 23,1 11,8 25,6 19,6 15,7 16 9 24 13 NNE 1015,8 60 1 0,0
21.06.2019 18:00:00 23,3 12,0 26,6 19,5 15,7 14 7 22 12 NNE 1016,2 60 0 0,0
21.06.2019 17:00:00 23,4 11,4 26,7 19,3 15,7 16 9 29 16 NE 1016,3 57 8 0,0
21.06.2019 16:00:00 24,0 11,7 31,6 19,2 15,7 18 10 32 17 NE 1016,4 60 37 0,0
21.06.2019 15:00:00 23,7 11,4 35,2 19,1 15,7 18 10 36 19 NNE 1016,8 60 40 0,0
21.06.2019 14:00:00 23,6 11,9 34,9 19,0 15,7 18 10 33 18 N 1017,0 60 57 0,0
21.06.2019 13:00:00 23,8 12,7 37,5 19,0 15,6 18 10 35 19 N 1017,0 53 60 0,0
21.06.2019 12:00:00 22,0 12,3 30,8 19,0 15,6 18 10 31 17 N 1017,5 54 54 0,0

tt = Température de l'air
td = dewpoint
tt 5cm = Température de l'air 5cm
tt -20cm = Température de l'air -20cm
tt -100cm = Température de l'air -100cm
ff = Vitesse du vent
fx = gusts
dd = Direction du vent
ppp = reduced air pressure
vv = visibility
sd = Ensoleillement
rr = Quantités de précipitations

stations d'obs. à proximité